Weather in Lazhiny

Russia / Novgorod Oblast     58°09′17″N   31°49′13″E
temp.,
°C
wind,
m/s
gust,
m/s
humid.,
%
clouds,
%
prec.,
mm/h
press.,
hPa
HPBL,
m
14 may, fri
fri1400:00+11sse387737 0.0 1012445
03:00+8sse379812 0.0 1012189
06:00+8sse38930 0.0 1012233
09:00+14sse37635 0.0 1012748
12:00+16sse5859100 0.0 10131034
15:00+17sse486394 0.3 10121241
18:00+18se3664100 0.4 10101114
21:00+13ese35895 0.9 101082
15 may, sat
sat1500:00+11ese359325 0.0 100991
03:00+10e3694100 0.0 1008101
06:00+11e3794100 0.0 1008171
09:00+15ese3581100 0.1 1007439
12:00+19ene126452 0.4 10061063
15:00+19sw117596 2.1 1005468
18:00+17sse358668 4.9 1004336
21:00+14ssw259613 8.5 1003103
16 may, sun
sun1600:00+12s22979 0.1 100423
03:00+11s229829 0.2 100423
06:00+11w2310088 0.6 100599
09:00+12w2296100 0.8 1007197
12:00+17w2369100 0.0 1008573
15:00+18w346758 0.4 1008701
18:00+17wsw358399 1.1 1009334
21:00+12wsw229717 1.6 101021
17 may, mon
mon1700:00+12s119621 0.0 101111
03:00+11sse2297100 0.0 101229
06:00+12se249613 0.0 1012107
09:00+17sse357811 0.0 1012435
12:00+21sse4657100 0.0 10121450
15:00+22se4650100 0.0 10101718
18:00+21e4861100 0.0 1008611
21:00+17e51578100 0.6 1006638
18 may, tue
tue1800:00+16ese51592100 1.3 1003492
03:00+16se51495100 3.4 1002776
06:00+12sw499471 0.5 1005504
09:00+14sw3686100 0.5 1007603
12:00+15wsw3480100 0.3 1009606
15:00+16wnw3368100 0.3 1009653
18:00+16nw1365100 0.0 1009312
21:00+13wnw0177100 0.0 100910